Location: Unspecified
(58.7730°N, 5.8460°E)
Time: 22:33:59
(UTC+01:00)

Cosmos 2058 - Visible Passes

Search period start: 30 January 2015 00:00
Search period end: 09 February 2015 00:00
Orbit: 569 x 590 km, 82.5° (Epoch: 28 January)

Date Brightness Start Highest point End Pass type
(mag) Time Alt. Az. Time Alt. Az. Time Alt. Az.
30 Jan 5.7 18:44:07 10° W 18:46:40 15° NW 18:49:09 10° NNW visible
31 Jan 5.7 18:49:52 10° WNW 18:51:52 13° NW 18:53:46 10° NNW visible
01 Feb 5.9 18:55:58 10° WNW 18:57:05 11° NW 18:58:03 10° NNW visible
